Date,TemperatureHighF,TemperatureAvgF,TemperatureLowF,DewpointHighF,DewpointAvgF,DewpointLowF,HumidityHigh,HumidityAvg,HumidityLow,PressureMaxIn,PressureMinIn,WindSpeedMaxMPH,WindSpeedAvgMPH,GustSpeedMaxMPH,PrecipitationSumIn
2014-1-1,51.1,34.5,24.4,29.5,24.3,19.8,86,69,37,29.73,29.44,2,0,0,0.00
2014-1-2,39.7,34.2,28.9,38.8,30.3,14.2,99,86,51,29.50,29.03,2,0,2,0.18
2014-1-3,45.9,25.3,18.3,13.9,3.8,-4.0,66,41,24,29.78,29.21,11,1,11,0.00
2014-1-4,40.5,27.8,14.0,21.0,11.5,3.3,76,53,25,29.80,29.59,2,0,0,0.00
2014-1-5,54.9,36.2,31.8,38.9,33.0,16.6,99,89,49,29.59,29.12,2,0,0,0.09
2014-1-6,39.2,28.9,8.1,38.9,12.1,-20.9,99,55,23,29.57,29.04,13,2,13,0.12
2014-1-7,30.7,15.4,4.6,2.3,-10.4,-27.5,60,32,21,29.79,29.56,7,1,7,0.00
2014-1-8,48.6,25.8,10.0,15.8,8.5,1.3,72,51,22,29.88,29.75,2,0,0,0.00
2014-1-9,49.6,34.2,20.3,26.5,16.6,8.2,79,53,22,29.89,29.78,2,0,0,0.00
2014-1-10,44.1,40.2,34.9,42.7,36.4,21.6,98,87,50,29.81,29.44,2,0,0,0.50
2014-1-11,50.4,45.5,42.4,49.8,44.7,33.2,99,97,58,29.44,28.98,2,0,1,1.18
2014-1-12,61.9,47.0,31.8,37.6,29.7,24.1,87,54,27,29.52,29.14,2,0,0,0.00
2014-1-13,49.3,39.0,26.6,40.7,32.6,22.9,94,79,60,29.50,29.31,2,0,0,0.01
2014-1-14,59.7,45.5,22.3,50.2,36.4,-9.1,99,76,24,29.68,29.15,2,0,0,0.27
2014-1-15,54.0,35.6,25.9,37.3,28.3,20.6,90,76,45,29.32,29.23,2,1,0,0.00
2014-1-16,46.6,32.9,20.3,28.2,16.5,7.9,85,56,22,29.39,29.25,2,0,2,0.01
2014-1-17,53.1,35.9,21.0,28.9,19.6,13.1,84,55,26,29.72,29.16,2,0,0,0.00
2014-1-18,41.9,31.5,23.5,29.0,9.6,1.6,63,41,24,29.71,29.26,2,0,0,0.00
2014-1-19,51.3,35.1,20.7,26.8,19.3,14.3,78,55,31,29.67,29.03,2,0,0,0.00
2014-1-20,67.5,43.4,22.6,35.0,22.0,15.9,76,50,18,29.62,29.14,2,0,0,0.00
2014-1-21,52.9,35.6,25.9,31.5,23.6,8.9,85,63,42,29.24,28.94,12,0,12,0.00
2014-1-22,45.3,27.5,18.1,9.4,0.6,-5.4,51,32,21,29.68,29.23,8,1,8,0.00
2014-1-23,36.9,26.2,16.0,12.7,-0.2,-12.1,62,33,21,29.78,29.41,12,1,12,0.00
2014-1-24,66.6,19.3,9.9,62.6,-10.1,-23.3,87,27,15,29.91,29.20,11,2,11,0.00
2014-1-25,66.6,30.1,9.9,62.6,11.6,-3.1,87,48,22,29.48,29.02,1,0,0,0.00
2014-1-26,54.9,39.6,22.3,21.9,15.0,8.4,66,39,20,29.28,29.14,2,0,0,0.01
2014-1-27,62.6,41.4,30.0,38.9,26.2,1.9,79,57,29,29.43,29.17,2,0,2,0.01
2014-1-28,31.1,23.1,18.5,16.3,5.7,-7.9,81,53,21,29.63,29.42,8,1,8,0.09
2014-1-29,32.4,22.1,12.2,11.5,3.8,-7.2,80,49,21,29.66,29.49,2,0,0,0.00
2014-1-30,36.7,20.8,3.9,11.3,3.4,-4.0,71,50,24,29.71,29.54,2,1,0,0.00
2014-1-31,52.9,31.7,14.0,26.0,15.8,7.5,79,56,24,29.54,29.45,2,0,0,0.00
2014-2-1,58.8,41.4,21.9,33.7,24.1,18.1,88,56,23,29.58,29.45,2,0,97,0.02
2014-2-2,66.2,46.5,27.1,47.7,36.0,23.5,91,69,42,29.47,29.35,2,0,0,0.01
2014-2-3,68.9,52.3,42.4,65.3,45.3,34.7,99,79,52,29.60,29.20,40,0,0,0.47
2014-2-4,44.1,40.6,37.0,37.5,34.3,31.5,99,79,64,29.72,29.44,2,0,0,0.15
2014-2-5,60.6,42.0,36.1,48.7,35.3,24.7,99,80,38,29.48,29.17,2,0,2,0.12
2014-2-6,44.2,37.1,30.6,25.1,22.0,18.5,65,55,42,29.66,29.47,2,0,0,0.02
2014-2-7,50.0,38.6,28.0,31.8,27.1,21.0,81,64,44,29.68,29.57,2,0,0,0.00
2014-2-8,52.0,41.5,33.3,34.2,29.5,25.2,84,63,46,29.61,29.45,2,0,0,0.00
2014-2-9,58.1,44.1,29.8,38.0,33.0,27.3,91,67,46,29.58,29.31,2,0,0,0.00
2014-2-10,42.3,37.6,33.8,38.6,33.9,28.9,95,87,74,29.57,29.38,2,0,2,0.25
2014-2-11,38.8,33.4,25.9,33.8,23.3,-39.1,95,68,41,29.69,29.55,2,0,12,0.02
2014-2-12,28.4,26.0,23.0,23.2,17.5,8.6,88,71,43,29.73,29.20,4,0,4,0.00
2014-2-13,43.5,33.6,26.2,35.3,27.6,22.8,95,80,56,29.21,28.90,2,0,0,0.28
2014-2-14,60.8,44.7,28.0,33.9,24.8,20.2,81,49,25,29.14,29.01,2,0,0,1.56
2014-2-15,59.7,38.8,27.3,37.8,22.7,3.7,94,56,24,29.56,28.92,50,0,49,0.00
2014-2-16,58.5,41.0,24.3,30.2,23.7,13.1,79,53,31,29.49,29.35,2,0,2,0.00
2014-2-17,46.9,38.1,26.4,33.2,26.5,22.4,90,65,44,29.68,29.49,2,0,2,0.00
2014-2-18,66.0,47.2,27.5,38.1,27.3,19.9,93,55,18,29.57,29.44,30,1,1,0.00
2014-2-19,74.7,54.6,42.4,58.0,41.3,31.5,98,64,33,29.44,29.29,2,0,2,0.09
2014-2-20,66.6,54.2,45.3,55.7,43.8,36.4,92,69,48,29.54,29.28,2,0,2,0.00
2014-2-21,63.7,57.2,38.8,58.5,38.0,14.1,97,57,18,29.40,29.18,2,0,0,0.32
2014-2-22,68.0,48.5,33.8,36.5,26.1,18.6,83,49,16,29.55,29.39,2,0,2,0.00
2014-2-23,72.9,49.9,28.9,36.6,29.3,21.8,90,54,16,29.47,29.25,2,0,2,0.00
2014-2-24,62.2,49.3,35.4,40.5,26.3,12.1,82,46,21,29.48,29.28,2,0,2,0.00
2014-2-25,63.1,45.1,29.3,29.8,23.1,15.3,77,47,22,29.45,29.27,1,0,0,0.00
2014-2-26,53.1,38.9,27.3,27.6,21.9,14.8,72,52,25,29.31,29.14,1,0,2,0.00
2014-2-27,56.8,37.0,18.5,25.5,13.3,0.4,84,44,20,29.33,29.13,1,0,0,0.00
2014-2-28,48.4,34.2,19.0,20.9,12.8,8.4,75,45,22,29.62,29.33,2,0,2,0.00
2014-3-1,55.6,40.6,27.1,34.3,22.6,13.6,80,50,31,29.68,29.54,2,0,2,0.00
2014-3-2,70.7,50.9,29.1,49.1,38.8,26.8,92,67,41,29.59,29.25,2,0,2,0.00
2014-3-3,61.5,43.9,30.0,52.0,40.2,26.5,98,88,62,29.59,29.13,2,1,1,0.12
2014-3-4,41.7,32.7,22.1,26.9,17.4,-2.3,88,56,32,29.67,29.18,2,1,2,0.02
2014-3-5,57.4,40.8,27.7,32.7,25.5,18.4,77,56,33,29.60,29.44,2,0,2,0.00
2014-3-6,41.0,35.5,29.1,28.3,20.7,13.8,79,56,39,29.71,29.53,2,0,0,0.00
2014-3-10,78.3,65.2,48.6,43.2,27.8,21.6,57,27,15,29.16,28.59,2,0,0,0.00
2014-3-11,83.3,54.2,34.0,46.6,35.6,28.8,91,57,15,28.62,28.48,2,0,0,0.00
2014-3-12,77.7,56.7,31.8,62.1,41.0,12.0,86,56,40,28.68,28.07,17,1,17,0.01
2014-3-13,46.8,39.4,27.0,28.8,10.7,1.6,66,32,21,29.17,28.51,6,0,6,0.00
2014-3-14,67.5,46.1,23.4,27.5,18.2,-1.5,71,38,17,29.16,28.79,2,0,0,0.00
2014-3-15,75.4,56.6,34.9,41.7,30.5,21.4,79,41,16,28.82,28.74,2,0,2,0.00
2014-3-16,49.5,43.1,37.9,43.0,38.5,21.1,99,85,42,29.16,28.58,2,1,0,0.59
2014-3-17,36.9,33.3,31.1,36.1,31.6,29.0,98,94,87,28.74,28.58,2,1,1,0.27
2014-3-18,47.1,38.4,31.1,40.9,35.2,29.0,99,88,78,28.93,28.68,2,0,0,0.02
2014-3-19,49.8,42.9,36.3,46.5,41.5,35.6,99,95,84,28.93,28.74,2,0,1,0.11
2014-3-20,68.9,51.4,31.1,43.8,27.6,16.1,99,51,15,28.88,28.73,2,0,0,0.01
2014-3-21,74.3,52.7,29.8,57.7,27.5,21.5,86,46,15,29.20,28.77,2,0,0,0.00
2014-3-22,75.7,58.3,39.2,43.4,38.6,34.1,95,53,26,28.81,28.71,2,0,2,0.00
2014-3-23,53.7,46.3,40.8,49.2,39.3,26.2,99,79,45,28.92,28.71,2,1,0,0.38
2014-3-24,57.6,47.8,35.8,32.3,23.9,15.7,87,42,22,29.00,28.68,2,0,1,0.04
2014-3-25,48.2,37.5,28.2,40.2,29.8,9.6,99,75,38,29.16,28.58,2,1,1,0.14
2014-3-26,50.5,38.2,27.7,24.3,13.3,7.3,74,38,21,29.05,28.81,5,0,5,0.00
2014-3-27,63.3,43.8,23.4,29.7,21.3,16.7,79,47,20,29.17,28.98,2,0,0,0.00
2014-3-28,61.0,54.2,43.9,54.5,47.4,29.2,94,78,49,29.00,28.87,2,0,0,0.00
2014-3-29,65.3,55.7,32.0,99.9,53.9,28.9,99,90,58,29.16,28.41,2,0,0,0.47
2014-3-30,55.4,48.2,41.2,36.6,28.2,17.4,68,48,23,29.16,28.51,4,0,0,0.00
2014-3-31,79.0,60.5,40.8,38.0,25.7,18.3,78,30,13,28.91,28.80,2,0,0,0.00
2014-4-1,86.5,60.8,43.0,44.3,39.2,34.3,81,53,18,28.92,28.75,2,1,0,0.00
2014-4-4,77.0,66.4,51.6,59.6,56.3,50.8,97,72,48,28.65,28.56,0,0,1,0.00
2014-4-10,78.1,69.6,35.2,46.6,33.0,10.4,78,27,19,29.04,28.81,2,0,0,0.00
2014-4-11,67.5,66.4,43.2,47.5,45.2,34.0,89,47,45,28.97,28.92,2,0,0,0.00
2014-4-12,55.4,55.4,55.4,52.5,51.9,41.7,90,88,60,29.91,0.00,0,0,0,0.00
2014-4-13,55.4,55.4,55.4,52.5,52.5,52.5,90,90,90,29.91,29.91,0,0,0,0.00
2014-4-14,63.1,58.5,55.4,62.3,56.5,52.5,98,93,90,29.91,28.58,0,0,0,0.36
2014-4-15,64.0,54.4,36.1,62.1,48.7,20.2,98,82,51,28.82,28.43,4,0,4,0.85
2014-4-16,61.2,44.2,28.2,31.1,22.2,9.1,81,46,20,29.18,28.81,14,0,2,0.00
2014-4-17,66.6,47.2,31.6,34.7,28.8,22.7,91,55,20,29.30,29.15,2,0,0,0.00
2014-4-18,55.9,47.1,38.1,47.9,39.9,33.3,98,77,60,29.20,28.98,7,0,172,0.11
2014-4-19,57.7,51.0,46.0,53.7,49.6,40.2,99,95,84,29.01,28.43,2,0,2,0.45
2014-4-20,73.8,58.2,45.0,53.8,40.1,24.6,99,61,18,29.08,28.95,2,1,0,0.01
2014-4-21,81.9,59.4,37.2,51.0,43.2,35.9,99,62,24,28.99,28.71,2,1,0,0.00
2014-4-22,80.8,62.2,48.9,62.5,54.7,47.8,99,79,41,28.71,28.52,2,1,0,0.01
2014-4-23,78.4,63.5,48.6,55.5,33.1,19.3,99,40,14,28.78,28.55,2,0,0,0.00
2014-4-24,78.6,58.3,37.8,45.0,39.1,32.9,93,55,24,28.92,28.73,2,0,0,0.00
2014-4-25,72.3,60.5,49.6,67.1,51.9,44.4,96,75,52,28.75,28.54,2,1,0,0.50
2014-4-26,87.1,66.8,48.0,53.3,46.5,38.4,93,54,21,28.82,28.69,2,0,0,0.00
2014-4-27,90.5,68.3,45.7,89.0,50.1,44.8,99,60,22,29.01,28.68,2,0,0,0.00
2014-4-28,76.8,65.6,57.7,63.5,57.6,52.1,90,76,61,29.10,28.64,2,0,0,0.00
2014-4-29,57.7,54.0,52.3,54.2,52.8,51.8,98,96,83,28.82,28.64,2,0,0,0.61
2014-4-30,72.0,60.8,52.5,65.1,58.0,52.0,99,91,75,28.82,28.64,2,0,2,0.00
2014-5-1,83.8,68.5,56.5,63.5,54.7,40.2,99,66,34,28.69,28.56,2,0,2,0.01
2014-5-2,78.1,60.7,45.5,49.7,43.4,36.1,94,58,25,28.76,28.61,2,0,0,0.00
2014-5-3,81.0,64.0,46.2,50.8,44.1,35.3,99,56,21,28.75,28.65,2,0,0,0.00
2014-5-4,90.3,68.6,46.9,53.7,47.9,44.2,96,56,21,28.80,28.67,2,0,0,0.00
2014-5-5,95.2,70.8,52.0,62.4,56.2,50.5,95,65,26,28.80,28.59,2,0,0,0.00
2014-5-6,94.5,82.1,45.7,60.7,55.6,19.2,81,44,23,28.82,28.64,2,0,0,0.69
2014-5-7,89.1,71.1,59.2,64.8,59.9,42.7,92,70,41,28.93,28.75,2,0,0,0.00
2014-5-8,95.4,74.4,53.6,63.1,56.4,47.5,99,61,23,28.98,28.86,2,0,0,0.00
2014-5-9,87.6,70.2,55.8,65.9,60.4,54.6,98,74,44,28.94,28.85,2,0,0,0.28
2014-5-10,76.3,67.8,61.2,69.1,64.6,60.6,99,90,72,28.91,28.81,2,0,0,0.02
2014-5-11,91.0,72.7,59.0,69.1,60.8,56.5,99,72,34,28.95,28.84,2,0,0,0.00
2014-5-12,94.6,74.8,57.0,68.0,62.8,56.6,99,71,36,28.99,28.89,2,0,0,0.00
2014-5-13,94.8,77.4,61.7,70.2,65.5,61.1,98,71,39,28.95,28.86,2,0,0,0.00
2014-5-14,90.0,79.4,67.3,68.8,63.7,-32.9,100,61,38,28.93,28.81,7,0,0,0.00
2014-5-15,74.1,64.7,54.7,68.7,62.2,-32.9,99,92,66,28.83,28.64,7,0,0,1.13
2014-5-16,71.2,58.5,45.5,50.7,44.4,38.6,97,63,33,28.88,28.69,2,0,0,0.00
2014-5-17,73.8,56.1,38.8,50.3,44.4,38.6,99,69,35,28.97,28.87,2,0,0,0.00
2014-5-18,73.9,57.8,42.1,51.3,47.8,40.5,96,72,41,29.03,28.73,2,0,0,0.00
2014-5-19,79.3,69.3,52.2,55.3,49.9,45.8,97,52,35,29.08,28.97,2,0,0,0.00
2014-5-20,85.3,65.7,47.1,62.1,55.3,46.9,99,73,43,29.06,28.87,2,0,0,0.00
2014-5-21,91.9,74.4,54.9,66.3,58.8,54.0,99,65,32,28.94,28.76,2,0,0,0.00
2014-5-22,93.4,76.0,63.3,66.7,62.5,59.2,91,66,38,28.86,28.74,2,0,0,0.02
2014-5-23,89.2,73.6,64.8,66.5,62.0,51.5,95,70,38,28.89,28.76,2,0,0,0.02
2014-5-24,90.1,71.3,52.7,57.3,53.1,47.9,93,57,27,28.94,28.41,2,0,0,0.00
2014-5-25,84.2,69.3,54.3,65.2,58.7,52.2,94,71,48,28.98,28.82,2,0,0,0.00
2014-5-26,93.4,73.6,60.1,68.7,63.4,28.3,99,74,22,28.99,28.57,2,0,0,0.00
2014-5-27,89.2,72.2,63.3,72.9,66.8,62.2,97,84,52,28.91,28.80,2,0,0,0.04
2014-5-28,90.9,74.0,63.9,71.9,65.4,61.5,99,79,42,28.85,28.77,2,0,2,0.07
2014-5-29,91.9,71.3,59.5,70.0,64.5,59.3,99,83,43,28.90,28.79,2,0,2,0.32
2014-5-30,90.3,72.5,64.6,71.6,67.5,64.3,99,86,46,28.91,28.84,2,0,0,0.01
2014-5-31,81.5,70.0,63.3,68.1,65.2,60.6,99,86,51,28.99,28.90,2,0,0,0.18
2014-6-1,76.3,65.6,58.8,63.1,60.8,32.2,99,86,62,29.12,28.90,2,0,0,0.00
2014-6-2,86.4,69.5,56.8,62.8,59.5,56.6,99,74,42,29.07,28.92,2,0,0,0.00
2014-6-3,88.9,71.0,56.1,68.2,61.9,55.8,99,76,45,28.93,28.78,2,0,0,0.00
2014-6-4,95.2,76.0,58.8,70.3,64.5,55.1,99,73,37,28.84,28.58,2,0,0,0.30
2014-6-5,90.9,77.7,67.5,74.6,67.3,62.8,99,74,43,28.68,28.55,2,0,0,0.00
2014-6-6,90.1,75.7,62.8,65.9,63.3,58.9,96,68,42,28.76,28.66,2,0,0,0.00
2014-6-7,90.3,75.1,64.2,69.3,64.5,60.9,90,71,43,28.83,28.74,2,0,0,0.00
2014-6-8,87.6,75.0,70.0,74.0,69.6,66.7,97,84,55,28.78,28.64,2,0,0,0.30
2014-6-9,91.2,74.9,67.8,71.7,68.7,65.4,99,84,46,28.73,28.64,2,0,0,0.56
2014-6-10,96.4,78.9,66.6,73.6,67.3,62.8,99,73,36,28.79,28.68,2,0,0,0.25
2014-6-11,89.1,73.5,65.3,72.8,67.8,64.6,99,84,52,28.79,28.64,2,0,0,0.14
2014-6-12,88.3,73.9,67.3,72.0,67.0,63.8,97,81,48,28.74,28.64,2,0,0,0.07
2014-6-13,89.4,73.5,64.9,70.7,65.8,63.3,99,80,44,28.72,28.62,2,0,0,0.00
2014-6-14,92.8,75.7,60.1,70.7,64.2,59.8,99,72,39,28.87,28.72,2,0,0,0.00
2014-6-15,96.4,77.7,66.4,67.1,63.1,56.5,85,63,37,29.00,28.87,2,0,0,0.00
2014-6-16,94.3,77.2,65.5,73.2,68.1,64.3,97,76,45,29.00,28.92,2,0,0,0.00
2014-6-17,97.5,79.2,66.0,72.7,68.6,65.7,99,74,39,28.99,28.87,2,0,0,0.04
2014-6-18,96.6,77.8,39.7,73.3,68.5,24.2,97,76,22,28.94,28.78,2,0,0,0.00
2014-6-19,97.5,79.4,64.4,73.5,68.3,42.7,99,72,43,28.93,28.81,2,0,0,0.00
2014-6-20,92.8,74.9,65.5,74.9,68.9,65.1,99,84,47,28.98,28.75,6,0,6,0.31
2014-6-21,93.0,77.2,65.7,73.7,68.3,65.4,99,77,49,28.77,28.64,2,0,12,0.00
2014-6-22,94.5,78.6,64.2,86.4,66.6,63.3,99,71,39,28.79,28.66,19,0,8,0.00
2014-6-23,89.4,76.9,69.4,71.7,68.7,66.2,93,77,51,28.91,28.79,2,0,0,0.00
2014-6-24,84.7,74.0,69.6,75.1,70.1,66.7,98,88,64,28.92,28.82,2,0,0,0.80
2014-6-25,92.3,77.0,70.2,76.7,70.4,66.8,99,82,47,28.83,28.73,2,0,0,0.04
2014-6-26,93.7,82.9,68.0,72.5,66.7,63.6,97,64,39,28.84,28.75,2,0,0,0.00
2014-6-27,93.7,82.1,74.3,72.1,69.2,65.0,84,66,39,28.93,28.75,2,0,49,0.00
2014-6-28,82.0,74.9,69.8,73.0,69.9,67.7,95,85,70,29.02,28.90,2,0,0,0.02
2014-6-29,82.8,72.4,67.5,71.9,69.6,67.1,99,91,68,29.05,28.92,2,0,0,0.97
2014-6-30,90.3,73.2,67.3,74.1,69.8,67.0,99,90,52,28.92,28.77,2,0,0,0.19
2014-7-1,95.2,83.4,69.6,80.9,72.2,69.2,99,73,45,28.81,28.62,2,0,2,0.00
2014-7-2,97.0,90.4,71.2,80.9,72.0,62.3,97,57,42,28.78,28.55,2,0,0,0.00
2014-7-3,95.9,78.1,68.7,75.3,69.1,55.1,94,76,46,28.80,28.70,2,0,0,0.32
2014-7-4,88.7,74.3,60.4,64.0,59.1,50.9,97,64,29,29.01,28.78,2,0,2,0.00
2014-7-5,91.6,71.2,54.7,60.1,56.3,53.3,96,64,31,29.10,28.42,16,0,16,0.00
2014-7-6,91.6,73.8,56.1,66.3,60.3,55.3,98,68,33,29.00,28.83,51,1,51,0.00
2014-7-7,95.0,77.7,60.6,69.0,65.0,59.7,99,69,37,28.87,28.73,2,0,0,0.04
2014-7-8,95.5,78.2,64.6,72.4,67.9,64.0,98,74,44,28.83,28.70,2,0,0,0.00
2014-7-9,89.6,78.0,70.2,72.5,69.4,57.7,93,77,50,28.85,28.75,2,0,0,0.02
2014-7-10,86.4,72.2,68.5,72.6,68.6,63.3,99,90,54,28.90,28.80,14,0,2,0.32
2014-7-11,92.8,78.2,70.2,72.8,68.8,66.2,93,75,46,29.01,28.86,2,0,0,0.00
2014-7-12,94.5,79.4,68.2,77.5,69.7,65.3,97,75,44,29.19,28.93,2,0,0,0.00
2014-7-13,92.7,78.9,68.4,75.0,70.8,67.5,97,78,50,28.95,28.74,2,0,0,0.00
2014-7-14,96.8,81.6,70.3,75.1,70.6,68.0,97,73,43,28.84,28.68,2,0,0,0.00
2014-7-15,91.6,78.3,68.2,73.3,67.3,61.3,96,71,45,28.82,28.57,2,0,0,0.00
2014-7-16,89.2,73.5,61.2,62.4,58.8,54.6,96,64,33,28.77,28.64,4,0,0,0.00
2014-7-17,90.1,73.0,59.5,62.1,57.7,53.3,89,62,32,28.90,28.76,2,0,0,0.00
2014-7-18,68.0,65.7,62.6,66.2,63.4,60.5,99,93,81,29.01,28.90,2,0,0,0.54
2014-7-19,68.7,65.5,63.9,67.7,64.9,49.7,99,98,94,28.98,28.65,2,0,0,0.31
2014-7-20,82.2,70.9,63.3,70.6,66.1,62.5,99,86,65,28.94,28.84,2,0,2,0.01
2014-7-21,84.0,73.4,68.5,72.6,70.1,52.6,99,90,78,28.95,28.69,2,0,2,0.02
2014-7-22,88.5,76.1,70.3,73.5,70.6,68.2,98,85,55,28.98,28.88,2,0,0,0.02
2014-7-23,95.7,79.3,69.3,83.4,71.4,68.4,99,79,44,28.93,28.75,2,0,0,0.02
2014-7-24,89.2,76.5,70.3,74.7,70.9,69.0,97,84,56,28.76,28.68,2,0,0,0.08
2014-7-25,90.7,80.2,68.5,70.9,68.1,55.8,96,69,44,28.92,28.73,2,0,0,0.08
2014-7-26,93.7,79.5,67.5,74.5,68.1,63.3,98,72,41,28.84,28.75,2,0,0,0.08
2014-7-27,92.8,78.6,70.7,76.0,70.5,67.2,96,78,46,28.79,28.59,2,0,0,0.09
2014-7-28,88.0,75.9,65.3,75.2,63.5,57.2,99,69,40,28.74,28.62,2,0,0,0.24
2014-7-29,85.8,71.4,60.1,62.6,58.0,55.2,92,66,39,28.83,28.70,2,0,0,0.00
2014-7-30,87.1,70.1,56.8,62.5,57.6,54.2,95,69,35,28.90,28.82,2,0,0,0.00
2014-7-31,73.0,66.7,59.9,67.9,62.8,57.1,96,87,75,28.95,28.88,2,0,0,0.09
2014-8-1,68.7,65.2,62.8,66.3,63.5,61.9,99,94,84,28.95,28.89,2,0,0,0.43
2014-8-2,76.5,68.9,64.0,68.4,65.3,63.2,99,89,73,28.94,28.86,2,0,2,0.01
2014-8-3,88.9,75.5,64.9,71.8,65.9,61.2,99,76,42,28.92,28.82,2,0,0,0.02
2014-8-4,88.7,74.2,63.5,68.1,65.5,61.1,95,76,47,28.92,28.83,2,0,2,0.02
2014-8-5,90.0,76.5,66.7,71.8,68.1,65.3,96,78,48,28.89,28.79,2,0,0,0.09
2014-8-6,90.5,74.9,62.8,72.2,67.1,61.9,99,80,45,28.94,28.74,2,0,0,0.02
2014-8-7,92.3,76.7,64.2,71.1,66.4,59.9,98,74,37,28.85,28.75,2,0,0,0.00
2014-8-8,71.8,69.4,66.4,70.6,67.7,64.9,98,94,87,28.94,28.69,2,0,0,0.41
2014-8-9,77.5,69.5,64.8,71.6,67.7,62.7,99,94,80,28.91,28.82,2,0,2,0.13
2014-8-10,69.8,66.3,64.0,69.0,65.5,62.7,99,98,93,28.91,28.84,57,1,0,0.94
2014-8-11,84.0,71.9,67.5,74.7,69.5,67.2,99,93,70,28.88,28.75,2,0,0,0.40
2014-8-12,89.1,76.4,70.0,76.1,70.2,52.9,97,82,53,28.86,28.58,2,0,0,0.05
2014-8-13,83.7,72.4,62.1,68.1,62.3,57.3,98,74,45,28.83,28.66,2,0,2,0.00
2014-8-14,87.6,70.1,54.5,65.1,59.9,53.7,99,74,41,28.87,28.76,2,0,0,0.00
2014-8-15,87.3,71.6,57.6,68.3,62.9,56.7,98,77,45,28.85,28.76,2,0,0,0.00
2014-8-16,90.9,74.9,63.1,68.4,64.7,59.8,96,74,41,28.86,28.78,2,0,0,0.00
2014-8-17,91.2,76.3,65.1,71.3,67.6,63.8,96,77,48,28.84,28.75,2,0,0,0.00
2014-8-18,90.5,77.1,70.2,76.5,70.1,66.9,96,80,56,28.77,28.60,2,0,0,0.08
2014-8-19,92.5,77.9,65.1,72.8,67.9,64.2,98,75,45,28.89,28.62,2,0,0,0.00
2014-8-20,93.0,80.8,68.0,74.4,69.4,65.1,96,71,48,28.87,28.72,2,0,0,0.00
2014-8-21,94.1,79.0,65.7,72.3,68.7,64.4,96,74,46,28.92,28.81,2,0,0,0.00
2014-8-22,96.4,80.3,69.6,75.9,71.2,68.3,97,77,44,28.88,28.76,2,0,0,0.05
2014-8-23,95.4,77.5,69.6,76.9,71.5,68.6,97,84,48,28.80,28.71,2,0,2,0.30
2014-8-24,74.8,71.6,69.4,71.8,68.7,65.8,97,91,81,28.92,28.77,2,0,0,0.01
2014-8-25,82.4,72.6,64.0,66.6,62.7,57.8,95,74,45,28.95,28.88,2,0,0,0.00
2014-8-26,84.2,69.6,57.7,65.1,60.6,55.0,98,76,46,28.98,28.87,2,0,2,0.00
2014-8-27,88.7,71.6,55.8,66.2,60.2,54.2,99,72,33,28.93,28.80,2,0,0,0.00
2014-8-28,97.0,76.4,60.6,73.3,66.7,59.7,97,77,39,28.85,28.76,2,0,2,0.18
2014-8-29,88.2,76.7,69.1,71.6,69.5,65.8,97,80,54,28.96,28.84,2,0,0,0.00
2014-8-30,89.6,76.8,69.8,74.8,71.2,64.3,96,84,52,29.01,28.68,2,0,0,0.00
2014-8-31,95.2,78.0,70.2,75.8,71.3,67.8,97,82,45,28.97,28.85,2,0,2,0.17
2014-9-1,95.5,78.2,70.3,74.5,70.0,67.2,97,79,43,28.93,28.84,2,0,0,0.00
2014-9-2,97.3,79.7,66.6,74.9,69.6,57.8,98,75,42,28.89,28.76,2,0,0,0.11
2014-9-3,90.3,76.7,66.2,74.6,69.2,57.4,99,80,47,28.94,28.68,2,0,0,0.61
2014-9-4,90.9,73.8,69.3,75.0,70.8,68.1,98,91,56,28.99,28.90,2,0,1,0.51
2014-9-5,90.0,75.5,67.5,75.9,71.3,67.2,99,88,59,29.02,28.88,2,0,1,0.01
2014-9-6,91.9,75.1,68.9,75.5,70.9,68.2,99,88,51,28.90,28.76,2,0,2,0.37
2014-9-7,86.2,74.8,67.5,75.9,69.2,67.0,99,85,55,28.91,28.79,2,0,1,0.17
2014-9-8,73.8,68.2,63.9,68.2,64.7,62.1,98,89,73,28.95,28.87,18,1,18,0.09
2014-9-9,78.1,71.3,65.5,69.1,66.7,64.3,97,86,69,28.95,28.87,2,0,0,0.00
2014-9-10,79.5,71.9,67.1,70.5,68.0,66.2,98,88,71,28.94,28.83,2,0,0,0.00
2014-9-11,91.8,76.9,66.9,73.2,69.7,65.7,97,80,52,28.86,28.75,2,0,0,0.07
2014-9-12,88.9,75.7,68.2,73.7,70.4,67.6,98,85,54,28.88,28.79,2,0,0,0.52
2014-9-13,88.0,73.2,66.2,73.0,67.8,60.2,99,84,56,28.99,28.84,2,0,0,0.35
2014-9-14,69.1,64.7,61.2,62.4,59.6,57.8,92,84,73,29.08,28.98,2,0,0,0.00
2014-9-15,73.8,67.4,63.7,66.6,63.9,61.4,97,89,77,29.02,28.70,2,0,0,0.01
2014-9-16,88.3,77.2,65.5,72.1,67.5,65.2,99,75,51,28.92,28.76,2,0,1,0.06
2014-9-17,84.9,73.1,61.7,66.9,64.2,59.1,98,76,55,28.81,28.72,2,0,0,0.00
2014-9-18,81.0,69.1,32.0,69.8,63.1,12.5,99,83,44,31.75,28.74,29,0,2,0.00
2014-9-19,76.3,68.3,64.8,66.6,63.9,12.5,97,87,65,31.75,28.84,29,1,0,0.00
2014-9-20,83.8,69.5,60.8,64.7,61.2,12.5,96,78,44,31.75,28.83,29,0,1,0.07
2014-9-21,89.6,70.3,55.9,67.7,61.6,12.5,99,78,44,31.75,28.62,29,0,0,0.00
2014-9-22,76.5,68.2,54.9,64.0,55.4,52.9,94,66,47,28.95,28.70,1,0,0,0.00
2014-9-23,60.6,59.4,56.3,56.9,51.2,49.7,88,74,69,29.12,28.95,1,0,0,0.00
2014-9-24,68.7,63.0,55.4,59.5,56.9,12.5,96,82,56,31.75,29.06,29,0,0,0.02
2014-9-25,76.3,66.7,60.8,65.9,62.6,59.3,98,87,66,29.06,28.96,2,0,0,0.01
2014-9-26,73.2,67.1,64.4,64.5,63.3,12.5,95,88,73,31.75,28.97,29,0,0,0.00
2014-9-27,77.5,66.1,57.6,64.0,59.3,12.5,99,81,53,31.75,28.94,29,0,0,0.00
2014-9-28,82.8,63.4,53.6,63.9,59.1,52.8,99,87,65,29.05,28.88,2,0,57,0.00
2014-9-29,70.2,65.2,62.1,67.3,63.6,12.5,99,95,85,31.75,28.76,29,0,0,0.09
2014-9-30,86.4,69.3,60.3,67.4,61.9,12.5,99,81,44,31.75,28.65,29,0,0,0.00
2014-10-1,87.4,68.2,52.7,66.4,59.2,52.2,99,77,37,28.85,28.72,2,0,2,0.00
2014-10-2,88.2,70.2,32.0,67.9,61.8,12.5,99,78,43,31.75,28.81,29,0,0,0.01
2014-10-3,75.7,65.6,57.4,70.5,63.8,12.5,99,94,70,31.75,28.57,29,0,0,0.40
2014-10-4,89.6,56.7,43.7,65.0,50.0,12.5,99,83,31,31.75,28.53,29,1,0,0.01
2014-10-5,68.2,57.6,41.7,48.9,40.4,12.5,99,57,28,31.75,28.70,29,0,0,0.01
2014-10-6,75.2,56.9,39.6,58.0,49.0,39.3,99,79,47,28.84,28.74,2,0,0,0.08
2014-10-7,58.1,57.7,57.6,57.8,57.5,57.3,99,99,99,28.84,28.82,2,0,0,0.12
2014-10-11,68.0,66.5,55.4,65.7,64.9,55.1,99,95,92,28.87,28.82,2,0,0,0.01
2014-10-12,67.3,57.0,53.6,66.1,56.1,52.8,99,97,92,29.03,28.85,4,1,2,0.26
2014-10-13,64.0,59.4,55.8,62.0,58.7,55.5,99,97,91,29.04,28.90,2,0,0,0.14
2014-10-14,72.5,68.6,62.6,70.1,67.7,61.7,99,97,85,28.90,28.57,4,1,4,1.58
2014-10-15,72.3,61.3,55.2,61.8,56.8,52.6,99,87,55,28.93,28.56,2,0,0,0.01
2014-10-16,68.2,57.3,49.3,56.7,52.3,48.6,99,85,56,28.70,28.56,2,0,0,0.01
2014-10-17,76.1,58.5,43.0,56.8,51.1,42.5,99,80,44,28.73,28.59,2,0,0,0.00
2014-10-18,72.3,59.7,50.4,64.2,49.1,42.7,99,72,43,28.79,28.58,4,0,4,0.00
2014-10-19,71.2,57.8,46.9,47.9,43.5,38.6,96,62,34,28.92,28.79,5,1,5,0.00
2014-10-20,70.0,55.6,41.2,54.6,48.6,40.9,99,80,52,28.91,28.74,2,1,0,0.00
2014-10-21,72.9,57.4,45.9,57.1,46.7,38.6,99,71,41,28.80,28.67,4,0,4,0.00
2014-10-22,64.6,51.7,39.9,45.2,40.8,37.7,97,69,44,28.89,28.75,4,1,4,0.00
2014-10-23,69.8,52.4,35.4,47.1,40.8,34.5,99,70,32,28.89,28.77,2,0,2,0.00
2014-10-24,68.9,51.5,39.9,50.6,43.4,38.8,99,78,34,28.86,28.76,2,0,0,0.00
2014-10-25,75.0,54.2,35.1,51.4,42.3,29.8,99,72,22,28.83,28.71,2,0,0,0.00
2014-10-26,80.4,63.6,49.5,66.9,48.1,36.5,97,64,22,28.93,28.68,2,0,0,0.00
2014-10-27,79.5,59.6,42.8,54.7,48.8,42.3,98,72,35,28.92,28.78,2,0,0,0.00
2014-10-28,82.2,61.5,43.9,60.1,52.3,43.4,99,76,39,28.93,28.80,2,0,0,0.00
2014-10-29,72.9,58.4,47.5,59.9,52.8,44.8,99,83,59,28.82,28.72,2,0,0,0.00
2014-10-30,66.0,51.0,37.4,50.0,41.2,36.8,99,74,35,28.87,28.74,2,0,0,0.00
2014-10-31,71.2,47.3,39.6,48.0,43.0,39.0,99,86,60,28.79,28.56,2,0,0,0.02
2014-11-1,71.1,44.3,39.0,67.8,35.6,10.9,97,72,55,31.75,28.51,29,1,29,0.09
2014-11-2,68.4,43.1,32.0,68.1,25.5,10.9,99,51,27,31.75,28.84,29,2,29,0.00
2014-11-3,66.2,45.2,26.1,36.3,28.3,10.9,93,59,18,31.75,29.08,29,0,2,0.00
2014-11-4,69.8,49.9,35.4,69.2,40.1,32.9,98,72,35,29.10,28.85,1,0,0,0.00
2014-11-5,68.9,53.6,42.8,48.2,44.3,10.9,96,75,36,31.75,28.90,29,0,0,0.00
2014-11-6,71.8,57.9,49.5,59.6,45.2,29.0,99,68,27,28.91,28.54,2,0,2,0.00
2014-11-7,58.5,48.2,34.2,40.7,33.8,30.1,87,59,35,28.84,28.68,4,1,4,0.00
2014-11-8,57.0,41.8,29.1,39.2,34.5,28.4,97,78,50,28.87,28.72,2,0,0,0.00
2014-11-9,64.9,47.7,32.9,45.5,38.6,10.9,99,75,39,31.75,28.68,29,0,0,0.00
2014-11-10,66.6,48.3,32.0,46.6,39.5,10.9,99,75,41,31.75,27.34,29,0,0,0.00
2014-11-11,70.9,48.1,31.8,50.4,41.2,31.5,99,80,43,28.86,28.69,2,0,0,0.00
2014-11-12,74.3,60.1,40.1,54.9,48.3,39.8,99,69,46,28.80,28.72,1,0,0,0.00
2014-11-13,84.9,71.2,71.2,66.9,52.2,52.2,55,51,51,28.77,28.74,0,0,0,0.00
2014-11-14,71.2,71.2,71.2,52.2,52.2,52.2,51,51,51,28.74,28.74,0,0,0,0.00
2014-11-15,71.2,71.2,71.2,52.2,52.2,52.2,51,51,51,28.74,28.74,0,0,0,0.00
2014-11-16,71.2,61.9,43.3,52.2,44.5,25.0,89,54,35,29.11,28.74,2,0,0,0.00
2014-11-17,48.6,41.5,32.7,48.3,39.3,21.5,99,92,62,28.99,28.61,2,0,0,0.77
2014-11-18,36.3,28.3,18.5,21.5,8.4,0.9,69,45,25,29.32,28.94,12,1,12,0.00
2014-11-19,43.9,28.3,13.8,21.3,12.4,7.2,81,56,23,29.41,29.10,2,0,0,0.00
2014-11-20,58.5,39.5,21.9,33.0,22.8,17.4,87,56,26,29.15,28.95,2,0,0,0.00
2014-11-21,55.0,37.6,26.1,29.5,19.3,11.2,82,54,20,29.46,29.12,1,0,0,0.00
2014-11-22,54.5,37.5,21.0,29.5,20.7,14.7,85,56,22,29.51,28.92,2,0,2,0.00
2014-11-23,46.6,42.3,39.0,46.3,38.6,28.8,99,88,66,29.25,28.69,2,0,2,1.38
2014-11-24,74.3,57.0,46.0,63.2,51.8,45.2,99,85,54,28.83,28.61,2,0,0,0.01
2014-11-25,60.1,49.9,43.2,48.8,40.3,29.0,99,75,31,29.04,28.82,2,0,0,0.00
2014-11-26,52.3,44.3,39.6,47.4,41.7,37.3,99,91,69,29.01,28.87,2,0,0,0.79
2014-11-27,48.9,39.6,32.4,43.3,32.1,21.8,99,76,50,29.26,28.90,4,0,4,0.02
2014-11-28,48.9,35.1,25.5,27.9,21.2,16.1,85,59,30,29.33,29.03,2,0,2,0.00
2014-11-29,55.8,38.2,26.6,33.7,28.1,22.3,90,70,39,29.24,29.10,2,0,6,0.00
2014-11-30,69.6,43.2,27.1,48.0,36.7,24.9,99,80,44,29.24,29.09,49,0,0,0.00
2014-12-1,76.5,53.4,35.1,53.5,45.3,34.6,99,78,45,29.32,29.12,2,0,0,0.00
2014-12-2,53.8,45.0,41.0,52.9,43.8,39.9,99,95,91,29.37,29.08,2,1,2,0.00
2014-12-3,56.8,47.6,41.4,52.0,46.0,41.1,99,95,79,29.09,28.93,1,0,0,0.00
2014-12-4,57.2,48.2,39.7,46.7,41.4,39.0,99,79,53,29.15,29.00,2,0,0,0.00
2014-12-5,50.0,47.2,44.1,45.4,42.2,39.8,97,83,74,29.22,29.08,2,0,0,0.00
2014-12-6,51.1,47.7,45.0,50.8,46.3,41.0,99,95,73,29.09,28.79,2,0,0,0.28
2014-12-7,56.8,45.5,33.8,42.9,30.3,18.1,98,60,24,29.19,28.93,2,0,0,0.00
2014-12-8,41.2,38.0,33.4,38.2,27.8,16.3,99,69,44,29.21,28.92,2,0,0,0.00
2014-12-9,53.2,39.9,32.4,45.8,34.0,28.1,99,82,49,28.91,28.72,2,0,0,0.01
2014-12-10,48.7,41.0,28.0,33.4,28.4,21.3,83,61,45,28.83,28.76,2,0,0,0.00
2014-12-11,52.3,36.4,27.0,26.4,18.6,9.7,81,54,21,28.91,28.73,4,0,4,0.00
2014-12-12,60.8,40.4,23.0,29.4,18.5,13.6,80,48,20,28.99,28.90,2,0,1,0.00
2014-12-13,68.2,42.1,25.2,30.6,21.3,14.7,82,51,15,28.93,27.93,1,0,0,0.00
2014-12-14,71.8,43.0,25.2,33.2,26.2,18.3,86,59,15,27.93,27.86,2,0,0,0.00
2014-12-15,61.2,40.6,25.7,37.2,31.2,22.9,94,72,38,28.01,27.91,2,0,0,0.00
2014-12-16,54.5,45.8,37.0,50.4,41.4,33.5,99,86,63,27.92,27.74,1,0,0,0.05
2014-12-17,63.9,49.7,34.5,42.7,34.2,29.2,91,58,28,28.02,27.90,2,0,0,0.00
2014-12-18,56.1,41.2,28.9,34.4,29.4,21.2,92,67,29,28.05,27.92,2,0,0,0.00
2014-12-19,55.9,42.8,28.6,38.4,31.8,26.0,93,68,37,28.06,27.95,4,0,0,0.00
2014-12-20,44.2,40.9,33.8,37.2,34.8,21.0,87,79,59,28.13,28.04,1,0,0,0.09
2014-12-21,45.7,42.7,38.8,39.9,38.1,35.8,91,84,79,28.15,28.05,2,0,0,0.00
2014-12-22,43.3,39.8,37.4,40.7,38.7,36.8,99,96,84,28.07,27.89,2,1,2,0.05
2014-12-23,43.2,40.8,37.4,42.6,40.5,36.4,99,99,98,27.94,27.78,2,0,0,0.28
2014-12-24,50.7,46.0,43.2,50.4,45.4,42.6,99,98,97,27.79,27.54,2,0,0,0.79
2014-12-25,57.7,45.8,30.2,48.5,35.3,28.7,99,69,38,28.14,27.58,2,0,2,0.00
2014-12-26,65.1,39.8,25.9,39.8,32.6,23.9,97,79,36,28.23,28.11,2,0,0,0.00
2014-12-27,65.1,46.6,33.6,43.4,37.9,32.4,99,75,35,28.17,28.03,2,0,0,0.00
2014-12-28,61.0,50.4,43.0,55.4,47.8,40.8,99,91,81,28.03,27.86,2,0,0,0.01
2014-12-29,54.9,50.6,41.4,54.0,50.1,41.1,99,98,97,28.04,27.89,4,0,4,0.47
2014-12-30,41.2,37.3,29.8,40.9,36.0,29.3,99,95,87,28.29,28.01,2,1,0,0.12
2014-12-31,49.3,34.7,27.7,37.1,26.9,15.6,99,77,38,28.32,28.20,2,0,2,0.00
2015-1-1,53.2,40.1,28.0,37.3,26.3,14.8,73,60,34,28.21,28.05,1,0,0,0.00
2015-1-2,54.5,46.8,37.2,42.1,38.4,32.8,90,73,60,28.23,28.07,1,0,0,0.00